RH
36 38 39 47 82 84 76 95 89 69 67 61 46 43 49 44 41 48 42 40 34 32 40 44 38 36 57 40 30 37 46 42 30 28 34 38 44 49 53 52 64 67 81 83 42 40 39 51 98
37 35 37 54 66 63 83 93 100 82 54 41 38 38 42 45 41 43 45 50 47 46 48 48 45 44 49 32 32 37 40 37 31 31 44 42 42 55 70 77 93 100 71 50 64 48 40 40 58
33 31 30 33 60 71 81 39 36 43 56 42 49 51 44 44 46 49 60 60 53 56 48 40 53 63 40 40 35 29 23 24 26 35 44 46 63 63 100 87 98 50 49 64 81 46 31 34 38
33 31 30 34 60 78 73 40 33 32 34 36 45 56 52 55 58 55 54 44 39 41 60 77 77 53 57 44 27 26 28 33 29 52 56 56 75 82 69 84 84 54 63 100 94 61 40 36 36
30 27 30 56 79 82 98 88 60 57 51 62 55 94 96 80 62 60 56 48 64 62 89 67 35 58 58 25 26 24 30 30 36 52 53 53 53 64 62 69 80 83 98 100 100 77 60 37 65
30 29 28 51 63 80 91 97 100 92 88 87 92 97 96 78 80 84 64 71 32 27 25 27 26 30 28 25 26 27 41 35 36 41 38 44 44 55 65 82 71 84 98 100 100 91 80 40 33
39 28 26 42 64 73 72 97 100 100 100 100 100 88 93 59 44 34 33 33 33 32 27 25 26 27 26 26 24 25 36 38 39 33 42 42 51 82 79 90 86 90 99 100 100 96 100 90 51
56 46 37 74 50 47 64 88 100 87 100 100 100 88 45 32 27 34 37 41 37 33 31 31 32 31 30 27 24 30 28 30 32 48 62 69 92 85 76 76 65 96 100 100 100 100 100 83 69
48 39 45 60 90 41 69 85 100 96 100 100 85 36 32 36 44 52 50 31 32 34 36 33 42 41 31 31 27 34 48 73 84 84 97 48 39 63 69 63 70 100 100 100 100 98 92 64 76
49 38 36 54 70 44 71 100 100 100 100 85 66 42 46 61 81 70 46 23 23 32 36 49 46 43 38 49 37 68 92 99 100 89 57 32 36 60 56 85 100 100 100 100 100 88 76 74 66
33 38 60 66 74 82 100 100 95 100 92 82 81 93 96 100 95 64 26 21 21 37 48 72 58 51 46 64 87 98 100 76 42 33 36 59 66 53 54 62 76 100 100 100 100 100 99 100 99
40 46 74 93 100 100 100 100 69 69 67 88 79 82 97 99 78 37 23 21 20 34 84 76 61 61 82 100 100 90 26 28 29 43 47 48 47 47 49 60 86 65 76 83 100 100 100 100 80
34 66 82 60 100 100 100 100 98 82 74 73 64 62 54 80 54 29 19 22 30 54 70 86 72 100 100 81 27 27 26 33 39 37 35 36 28 26 56 56 63 68 98 100 100 100 100 98 84
81 73 82 95 100 100 100 100 98 80 69 51 37 35 52 54 42 26 21 26 83 73 65 100 100 98 42 25 25 31 37 48 51 46 50 42 30 28 88 92 33 100 100 100 100 100 100 100 98
80 88 98 100 100 100 100 100 80 70 70 50 35 48 67 54 29 27 36 90 89 75 99 100 77 38 30 27 35 46 59 52 57 54 44 25 25 23 73 100 65 100 100 100 100 100 100 100 99
80 100 100 100 100 100 99 94 73 56 57 53 75 78 52 45 28 47 92 100 100 100 86 48 40 32 35 46 53 72 60 57 58 52 26 23 19 20 96 100 100 86 100 100 95 100 100 100 100
100 100 100 100 100 99 99 82 64 53 54 94 100 68 43 36 41 100 100 97 77 54 58 44 39 39 48 56 61 59 63 56 59 38 24 23 22 22 58 100 100 100 100 100 100 100 100 100 100
98 100 100 100 100 96 62 59 86 86 91 75 82 60 58 69 69 100 100 88 64 57 60 48 46 54 67 67 73 72 63 58 39 29 24 23 25 30 44 100 100 86 92 100 100 100 100 100 100
100 100 100 100 100 100 68 75 95 100 100 81 82 59 56 99 100 95 75 59 60 72 64 51 66 73 74 76 61 66 66 56 37 27 24 21 25 47 54 92 100 98 91 83 92 100 100 100 100
100 100 100 100 100 100 96 95 100 100 90 80 72 72 96 88 92 81 78 84 88 77 63 77 85 96 76 70 72 77 72 47 30 28 27 24 29 40 65 62 99 100 100 97 100 100 100 100 100
100 100 100 100 83 83 100 89 77 75 78 63 54 69 97 100 100 97 100 98 89 80 97 99 100 80 77 80 87 83 54 38 36 35 39 30 38 34 26 25 47 97 100 100 94 54 67 100 100
100 100 82 86 99 79 82 79 99 99 92 78 92 100 100 100 92 93 92 97 99 100 100 100 75 75 81 94 88 64 46 39 37 36 43 34 29 28 27 24 23 24 23 27 43 81 100 79 43
100 100 100 100 100 93 100 93 100 95 52 80 100 100 100 97 100 92 100 100 100 100 100 80 74 76 97 81 72 53 38 40 39 37 41 37 34 33 30 27 25 23 23 22 24 23 24 28 51
100 100 100 100 92 78 96 94 78 60 78 96 100 100 100 100 100 100 100 100 100 94 72 65 64 74 76 74 56 41 34 43 41 37 37 41 42 47 44 40 39 36 33 29 26 25 26 33 37
100 100 100 100 100 98 100 84 96 100 100 100 100 100 100 100 100 100 99 87 80 76 63 60 70 75 75 62 46 41 43 43 45 41 44 45 49 51 54 50 52 52 49 46 46 38 34 32 30
100 100 100 100 100 100 99 100 100 100 100 100 100 100 100 100 100 88 81 88 83 69 65 74 79 77 66 49 47 52 46 47 46 46 47 47 54 52 64 62 62 63 68 66 60 59 55 47 42
86 95 100 100 100 100 100 100 98 100 100 100 100 100 100 100 94 100 99 91 79 76 75 86 81 68 50 48 53 54 49 50 54 53 50 49 53 54 64 64 60 72 62 59 63 60 62 59 57
91 78 76 86 88 99 72 64 90 96 98 100 100 100 100 99 100 100 96 78 71 63 64 80 74 56 50 53 58 52 54 54 51 54 50 52 58 63 63 60 71 56 56 56 64 68 65 67 57
100 100 94 87 76 79 88 96 100 99 100 100 100 100 98 100 96 87 71 64 50 51 76 79 76 59 56 63 60 56 55 59 59 57 62 62 68 70 68 77 67 58 58 58 68 65 52 35 32
100 100 100 86 100 100 100 100 100 100 100 100 100 100 100 96 88 69 60 53 53 62 83 81 66 59 60 65 62 65 55 61 61 66 67 71 73 69 81 69 68 69 68 79 69 63 51 39 23
Wind_Speed
15 16 18 19 19 13 12 16 22 19 16 17 25 28 29 30 32 33 33 33 35 35 35 38 38 35 34 38 40 37 37 38 43 46 44 44 42 43 41 38 42 43 40 36 48 44 43 32 30
18 20 22 22 22 19 17 16 22 21 20 23 29 30 30 35 35 34 36 37 35 36 37 38 36 36 38 39 40 41 38 46 48 45 40 40 43 43 38 42 43 45 45 46 48 45 40 33 30
21 23 26 27 28 21 25 23 26 24 23 25 29 33 34 35 35 35 35 35 37 36 36 37 35 34 36 36 42 41 46 46 46 46 44 42 44 42 39 40 45 48 50 49 49 48 41 30 27
24 27 27 31 27 21 23 29 31 31 31 32 36 37 35 34 34 36 36 37 37 36 35 36 40 40 35 45 48 50 48 48 51 43 45 49 50 45 44 43 46 51 52 51 51 48 36 28 26
30 31 30 34 33 30 28 31 34 33 33 34 33 30 33 32 34 34 36 33 32 33 35 40 40 44 41 45 50 52 52 54 50 45 45 50 51 47 46 47 49 51 54 49 50 46 34 30 26
33 34 35 36 29 34 30 31 35 32 31 31 33 27 31 25 28 29 32 32 46 45 47 44 45 45 45 51 51 54 54 53 50 48 47 49 52 50 47 48 49 49 50 46 46 40 36 33 30
37 39 38 39 26 30 35 31 31 33 29 27 27 17 25 30 39 44 43 45 48 49 49 49 51 52 50 52 53 54 54 53 53 51 51 51 52 46 48 50 51 48 46 43 48 43 39 34 38
39 41 41 39 25 23 38 34 34 26 29 19 19 34 40 47 50 47 45 49 49 53 53 53 53 56 53 53 54 54 52 49 50 52 52 51 50 54 55 55 53 48 48 43 41 37 37 36 36
43 47 44 36 38 32 40 39 39 39 29 28 39 43 45 46 46 45 51 54 57 58 58 59 57 58 54 54 53 53 53 57 56 51 47 59 58 54 53 48 47 47 42 30 35 38 39 40 35
48 49 37 41 41 38 40 43 45 37 31 35 43 48 50 49 43 52 53 61 59 60 59 61 64 60 53 55 56 58 58 55 48 55 65 64 64 60 60 45 42 35 37 40 39 45 46 32 32
52 53 44 42 44 41 38 41 32 29 38 42 47 45 46 50 54 54 63 63 56 63 62 64 63 54 54 56 60 60 53 63 70 68 65 64 59 56 48 43 36 30 37 44 42 41 35 28 32
57 54 54 49 53 49 42 43 46 47 47 42 53 52 45 55 51 64 68 66 63 61 63 61 54 53 56 58 60 60 65 66 61 64 61 60 61 58 54 39 27 24 27 38 39 38 36 45 40
61 55 54 47 56 49 45 46 48 48 48 50 53 52 57 55 60 64 67 68 70 66 55 54 53 56 55 60 68 67 65 65 64 67 64 58 61 63 48 34 25 22 20 14 48 40 49 48 46
61 60 59 55 55 49 48 45 46 46 48 54 58 65 63 64 67 70 70 69 70 59 48 51 49 57 72 73 69 68 70 71 73 71 64 67 62 55 36 34 28 14 24 35 43 50 47 46 48
62 62 63 61 54 50 49 50 52 51 50 58 65 60 64 67 67 69 71 67 56 52 44 54 61 72 74 72 70 73 72 76 74 69 71 69 63 53 39 33 34 28 36 45 63 61 60 55 53
62 64 66 63 52 53 53 55 58 52 56 62 63 57 63 65 65 70 71 56 51 54 63 67 72 71 73 72 73 75 78 76 74 75 70 69 65 53 41 39 40 40 43 52 59 63 65 58 60
67 68 65 63 52 53 53 59 65 62 59 58 59 70 67 65 65 68 62 61 71 69 67 70 69 71 71 71 74 74 75 76 77 74 75 73 66 54 44 46 50 45 48 50 54 59 61 63 65
72 67 55 55 57 56 61 60 64 64 60 61 61 67 65 65 69 68 70 65 69 73 68 67 71 70 69 73 75 76 75 76 78 78 80 74 58 51 48 49 53 55 60 59 60 65 63 69 72
59 56 56 63 60 58 68 62 65 63 63 65 64 67 67 68 71 72 70 76 73 64 66 73 71 70 72 75 78 77 77 79 82 82 84 75 56 46 47 52 53 58 63 67 66 63 62 60 68
61 58 59 64 66 68 62 58 64 65 67 63 68 69 71 73 72 73 73 67 59 65 73 71 70 71 77 80 81 79 82 85 86 86 82 62 49 43 46 53 59 54 59 63 66 68 70 70 72
61 62 63 66 72 70 66 65 68 69 69 66 72 74 74 74 68 66 61 61 65 73 70 69 70 78 80 81 81 84 86 90 89 86 72 53 41 41 43 44 56 64 63 65 69 77 77 75 72
72 73 73 73 76 75 79 66 65 66 64 67 73 74 71 69 66 64 64 67 70 68 67 69 79 80 82 82 85 87 89 87 91 80 65 55 47 44 47 49 48 50 56 60 65 73 78 79 87
72 76 75 76 76 78 65 70 62 70 69 70 72 74 73 70 64 66 67 68 67 66 69 77 80 82 83 86 88 88 87 89 90 79 67 61 58 56 57 56 57 61 66 67 67 71 74 77 84
76 75 79 81 78 74 73 76 70 72 73 70 71 78 74 68 67 66 66 69 66 73 77 81 84 83 85 87 88 89 90 91 91 77 67 66 65 66 69 69 72 74 74 73 74 76 75 78 82
78 78 80 80 80 71 73 71 67 72 75 70 66 76 73 71 71 69 75 76 78 78 82 86 84 85 86 89 92 92 93 95 93 79 71 70 70 73 78 77 80 83 85 84 81 78 80 82 84
78 79 75 77 79 70 70 68 68 71 74 77 75 74 75 75 75 79 81 78 77 81 85 86 85 86 88 91 92 94 96 99 94 82 76 76 77 79 84 86 89 92 90 90 91 91 88 86 85
79 79 81 84 79 73 68 71 74 78 77 76 77 78 79 79 80 79 77 78 79 83 86 86 86 87 87 90 94 95 99 104 96 84 83 82 84 86 89 93 95 97 98 96 95 92 89 86 88
77 80 83 83 79 81 78 79 82 82 78 79 76 79 80 81 79 78 80 81 82 84 86 86 87 88 89 93 93 98 101 106 99 89 87 87 89 94 96 99 100 101 100 97 94 88 84 84 89
80 81 82 80 79 80 79 79 79 88 82 77 76 81 81 81 82 84 85 84 85 84 85 89 93 92 93 94 96 101 103 105 99 93 93 94 95 98 104 104 106 104 102 93 89 84 82 77 80
84 84 86 84 78 80 83 81 81 81 77 76 78 80 82 85 86 86 87 85 85 87 89 93 92 95 97 97 100 103 108 107 99 98 99 99 102 106 108 111 108 107 101 96 88 83 84 85 79
Wind_Direction
290 294 295 294 298 302 303 323 311 314 314 305 311 311 307 308 306 304 310 309 308 312 312 315 321 320 319 321 324 325 321 326 329 326 325 325 331 332 328 329 333 331 327 329 333 332 329 316 317
283 287 291 292 304 294 310 314 319 293 301 308 314 312 306 308 310 308 307 311 311 309 312 316 315 313 317 326 331 328 325 324 325 327 329 326 327 329 333 332 331 326 330 325 331 327 326 315 310
274 282 285 291 294 301 305 311 309 311 299 303 307 305 302 302 304 307 308 312 314 317 318 315 313 320 323 327 330 326 323 323 323 323 328 327 333 332 330 327 325 322 324 323 329 328 323 311 310
271 276 281 290 294 301 301 302 301 299 299 300 306 299 298 297 303 308 311 316 317 317 319 313 322 322 325 325 324 321 325 325 326 320 327 332 333 327 323 319 319 324 323 323 324 324 317 303 307
270 274 280 284 286 292 295 294 295 296 295 298 299 297 299 302 307 309 312 316 323 326 325 319 322 322 318 326 325 323 322 324 328 323 324 330 330 325 323 320 316 319 321 322 320 320 309 297 304
269 276 281 285 296 299 305 300 291 293 295 296 293 305 303 319 317 320 326 321 325 327 327 323 321 322 321 321 319 320 319 322 324 322 324 325 328 325 323 323 322 319 315 317 317 321 311 303 301
271 274 279 283 293 299 300 306 296 292 299 293 301 324 321 321 319 320 322 325 323 324 324 321 321 320 319 318 320 322 321 320 321 321 321 321 321 322 320 317 321 317 311 308 312 313 315 308 303
268 274 277 282 289 306 292 295 291 295 300 286 279 304 315 316 317 315 320 321 320 322 319 320 321 321 319 318 322 320 321 320 316 313 312 314 321 319 315 319 319 310 306 309 310 312 306 307 299
269 273 278 292 287 284 289 290 285 288 285 280 297 302 303 304 310 314 317 322 322 321 318 320 318 316 318 318 321 321 318 314 314 311 317 324 325 326 324 319 314 315 319 312 304 295 296 304 298
269 273 279 284 281 282 289 300 296 290 280 291 294 296 297 302 305 317 321 322 320 319 317 316 316 315 315 315 319 313 311 311 312 317 323 324 322 322 320 319 320 325 319 315 303 302 295 297 296
268 272 277 276 278 281 295 292 279 288 294 297 290 294 299 308 313 318 321 318 317 316 314 312 313 316 316 311 309 308 313 318 321 323 324 320 322 322 322 318 320 329 329 325 305 297 297 286 299
269 273 277 275 279 286 288 276 275 280 287 286 297 308 311 310 311 318 319 316 314 313 312 310 313 313 311 307 306 316 321 323 322 320 320 323 324 322 320 315 311 309 324 315 307 299 291 293 295
267 273 273 278 282 285 283 272 278 281 289 293 299 300 304 306 312 315 315 313 310 312 313 307 313 308 308 316 319 319 323 321 321 320 323 321 321 319 310 299 278 298 311 283 275 269 290 294 287
268 270 272 276 277 282 277 273 279 285 293 293 295 299 299 302 308 311 311 308 307 312 312 303 305 310 316 321 321 318 319 317 318 320 322 322 322 317 286 272 266 241 211 221 238 261 285 293 290
269 273 274 275 278 281 268 274 278 287 292 294 295 294 298 303 309 312 308 304 310 310 299 297 309 317 318 319 319 315 316 316 319 323 324 324 323 315 280 259 244 216 218 222 245 257 274 278 275
269 272 271 272 276 270 269 277 282 286 290 294 296 296 304 305 309 305 300 304 299 296 303 307 315 317 318 317 316 311 315 318 319 322 324 324 322 313 269 249 251 238 241 240 242 250 262 268 274
267 266 272 278 280 269 274 281 283 287 289 292 298 301 305 306 306 295 296 299 306 305 305 309 315 317 316 314 311 312 314 318 320 323 326 325 321 310 270 254 249 243 246 249 251 252 268 262 272
262 268 279 276 270 270 275 279 284 289 290 291 294 301 302 300 301 294 298 304 304 304 308 313 315 314 313 313 310 310 314 317 319 323 326 324 315 299 268 252 250 250 249 257 261 264 268 264 267
268 271 267 269 270 269 273 280 281 286 289 294 296 296 298 294 296 299 300 301 301 305 311 314 313 314 313 311 313 312 315 316 319 322 326 323 314 289 270 254 256 256 253 256 257 266 261 264 268
267 269 269 269 270 273 280 277 280 286 289 295 293 294 292 294 295 295 297 299 303 311 312 311 311 310 313 312 312 313 315 318 320 325 327 320 308 286 274 266 256 259 260 259 259 261 263 264 267
264 268 264 264 270 275 277 280 283 286 290 291 293 291 289 292 294 295 297 302 307 309 309 309 309 312 312 312 312 313 317 320 326 329 324 317 305 290 281 280 270 261 262 265 265 263 264 267 266
259 256 261 267 270 274 280 283 285 285 286 291 287 287 289 292 293 296 298 303 306 307 308 309 312 313 312 311 312 315 318 324 328 324 318 313 310 302 295 294 289 284 281 279 276 270 260 260 263
260 266 264 264 269 275 279 279 280 281 283 285 285 285 286 290 292 294 300 303 305 307 307 310 311 311 310 311 313 315 320 326 329 323 316 311 310 307 306 303 300 299 297 292 288 282 275 271 268
259 261 268 273 273 275 274 277 279 281 283 284 283 281 285 286 290 295 298 302 303 306 309 310 311 309 310 310 313 315 320 325 325 319 314 310 309 309 309 308 307 305 303 297 292 288 283 277 273
262 265 265 265 269 272 271 275 277 281 283 282 280 280 282 285 289 292 299 303 304 306 308 310 309 308 309 312 314 318 321 325 324 318 313 310 308 309 308 310 310 309 306 305 299 291 286 283 278
256 260 265 267 265 265 269 276 280 279 279 284 286 282 282 285 288 294 298 301 304 306 308 308 307 308 311 313 318 321 323 323 322 316 313 312 310 311 309 311 312 311 308 305 301 299 293 288 283
254 258 262 263 267 269 273 276 278 278 281 285 285 283 283 286 290 293 298 302 305 306 306 306 306 309 310 315 318 321 321 324 321 316 313 313 312 313 313 312 312 311 309 307 302 299 295 293 286
264 260 260 265 267 270 271 273 277 275 282 285 284 281 283 288 291 296 300 303 304 305 305 305 305 308 312 315 317 318 321 324 321 316 314 315 313 312 313 313 313 311 311 308 304 300 298 295 291
259 264 264 264 268 270 272 272 272 279 281 278 277 280 284 288 293 299 301 302 304 305 303 303 305 308 313 314 317 319 321 322 318 316 314 314 312 311 313 314 313 314 312 310 308 304 300 299 296
255 261 265 267 268 268 270 274 275 275 276 277 280 284 289 294 297 299 300 302 304 304 303 304 305 310 313 314 316 317 319 322 319 316 315 314 313 313 314 314 315 314 313 313 309 307 306 302 302